Location: Bacea
(45.9500°N, 22.6667°E)
Time: 14:44:52
(UTC+00:00)

Envisat - Pass Details

Date: 29 January 2022
Orbit: 764 x 765 km, 98.2° (Epoch: 15 May)

Event Time Altitude Azimuth Distance (km) Brightness Sun altitude
Rises 02:26:52 0° 24° (NNE) 3,241 6.7 -36.2°
Reaches altitude 10° 02:29:35 10° 38° (NE) 2,310 6.0 -35.7°
Maximum altitude 02:33:45 25° 93° (E) 1,506 5.0 -35.0°
Drops below altitude 10° 02:37:54 10° 148° (SSE) 2,297 5.7 -34.3°
Sets 02:40:35 0° 162° (SSE) 3,218 6.3 -33.8°
